Rogers, AR

10:02 PM CDT on September 18, 2019 (GMT -0500)
Rogers Municipal-Carter

Weather History for KROG - August, 2019

Change the Weather History Date:

Sunday, August 25, 2019

  Actual Average Record
Temperature  
Mean Temperature 74 °F -  
Max Temperature 80 °F 85 °F 96 °F (1998)
Min Temperature 69 °F 65 °F 53 °F (2015)
Cooling Degree Days 10    
Growing Degree Days 24 (Base 50)    
Moisture  
Dew Point 69 °F    
Average Humidity 89    
Maximum Humidity 94    
Minimum Humidity 71    
Precipitation  
Precipitation 0.26 in - - ()
Sea Level Pressure  
Sea Level Pressure 29.91 in    
Wind  
Wind Speed 9 mph (SSE)    
Max Wind Speed 16 mph    
Max Gust Speed 20 mph    
Visibility 10 miles    
Events Rain , Thunderstorm    
Averages and records for this station are not official NWS values.
T = Trace of Precipitation, MM = Missing Value Source: NWS Daily Summary

Daily Weather History Graph

Daily Weather History Graph

Search for Another Location

Airport or City:

Astronomy

Aug. 25, 2019 Rise Set
Actual Time 6:42 AM CDT 7:54 PM CDT
Civil Twilight 6:15 AM CDT 8:20 PM CDT
Nautical Twilight 5:43 AM CDT 8:52 PM CDT
Astronomical Twilight 5:10 AM CDT 9:25 PM CDT
Moon 1:22 AM CDT (8/25) 4:10 PM CDT (8/25)
Length of Visible Light 14h 05m
Length of Day
13h 12m
Waning Crescent, 29% of the Moon is Illuminated
Aug 25
Waning Crescent
Aug 30
New
Sep 5
First Quarter
Sep 13
Full
Sep 21
Last Quarter

Hourly Weather History & Observations

Time (CDT) Temp. Heat Index Dew Point Humidity Pressure Visibility Wind Dir Wind Speed Gust Speed Precip Events Conditions
12:44 AM 69.8 °F - 68.0 °F 94% 30.02 in 10.0 mi ESE 10.4 mph - N/A   Overcast
12:58 AM 70.0 °F - 68.0 °F 93% 29.98 in 10.0 mi ESE 15.0 mph 19.6 mph N/A   Overcast
1:58 AM 70.0 °F - 68.0 °F 93% 29.96 in 10.0 mi ESE 16.1 mph - N/A   Overcast
2:58 AM 70.0 °F - 68.0 °F 93% 29.94 in 10.0 mi ESE 13.8 mph 17.3 mph N/A   Overcast
3:52 AM 69.8 °F - 68.0 °F 94% 29.97 in 10.0 mi SE 12.7 mph - N/A   Overcast
3:58 AM 70.0 °F - 68.0 °F 93% 29.93 in 10.0 mi SE 13.8 mph - N/A   Overcast
4:58 AM 71.1 °F - 69.1 °F 93% 29.93 in 10.0 mi ESE 4.6 mph - N/A   Overcast
5:54 AM 71.6 °F - 69.8 °F 94% 29.96 in 10.0 mi ESE 9.2 mph - N/A   Overcast
5:58 AM 71.1 °F - 69.1 °F 93% 29.92 in 10.0 mi ESE 8.1 mph - N/A   Overcast
6:58 AM 71.1 °F - 69.1 °F 93% 29.92 in 8.0 mi SE 11.5 mph - N/A   Overcast
7:20 AM 71.6 °F - 69.8 °F 94% 29.96 in 10.0 mi ESE 6.9 mph - N/A   Overcast
7:58 AM 72.0 °F - 70.0 °F 93% 29.92 in 10.0 mi ESE 6.9 mph - N/A   Overcast
8:18 AM 71.6 °F - 69.8 °F 94% 29.96 in 10.0 mi SE 6.9 mph - N/A   Overcast
8:52 AM 73.4 °F - 69.8 °F 88% 29.96 in 9.0 mi SSE 8.1 mph - N/A   Overcast
8:58 AM 73.9 °F - 70.0 °F 87% 29.92 in 9.0 mi SSE 8.1 mph - N/A   Overcast
9:58 AM 77.0 °F - 71.1 °F 82% 29.91 in 10.0 mi South 9.2 mph - N/A   Overcast
10:17 AM 78.8 °F - 71.6 °F 78% 29.95 in 10.0 mi South 10.4 mph - N/A   Overcast
10:58 AM 78.1 °F - 70.0 °F 76% 29.92 in 10.0 mi SSW 10.4 mph - N/A   Overcast
11:58 AM 79.0 °F - 71.1 °F 77% 29.90 in 10.0 mi South 10.4 mph - N/A   Overcast
12:39 PM 71.6 °F - 66.2 °F 83% 29.95 in 10.0 mi WNW 11.5 mph - 0.00 in Rain Light Rain
12:56 PM 69.8 °F - 66.2 °F 88% 29.94 in 7.0 mi NNW 3.5 mph - 0.08 in Rain , Thunderstorm Rain
12:58 PM 69.1 °F - 66.9 °F 93% 29.91 in 7.0 mi Calm Calm - 0.08 in Rain , Thunderstorm Light Rain
1:11 PM 69.8 °F - 68.0 °F 94% 29.94 in 8.0 mi SSW 10.4 mph - 0.04 in Rain Heavy Rain
1:16 PM 69.8 °F - 68.0 °F 94% 29.93 in 7.0 mi SSW 11.5 mph - 0.06 in Rain , Thunderstorm Thunderstorms and Rain
1:21 PM 69.8 °F - 68.0 °F 94% 29.93 in 10.0 mi SW 10.4 mph - 0.06 in Rain , Thunderstorm Light Thunderstorms and Rain
1:33 PM 69.8 °F - 68.0 °F 94% 29.92 in 10.0 mi SW 10.4 mph - 0.09 in Rain Light Rain
1:40 PM 69.8 °F - 68.0 °F 94% 29.92 in 10.0 mi SSW 6.9 mph - 0.12 in Rain , Thunderstorm Rain
1:58 PM 70.0 °F - 66.9 °F 90% 29.87 in 10.0 mi South 3.5 mph - 0.17 in Rain Rain
2:58 PM 73.0 °F - 69.1 °F 87% 29.84 in 10.0 mi East 9.2 mph - 0.01 in   Clear
3:58 PM 75.0 °F - 70.0 °F 84% 29.82 in 10.0 mi Variable 3.5 mph - N/A   Clear
4:58 PM 80.1 °F 83.2 °F 70.0 °F 71% 29.81 in 10.0 mi Calm Calm - N/A   Scattered Clouds
5:58 PM 80.1 °F 83.6 °F 71.1 °F 74% 29.80 in 10.0 mi SSE 5.8 mph - N/A   Partly Cloudy
6:58 PM 78.1 °F - 72.0 °F 81% 29.80 in 10.0 mi ESE 4.6 mph - N/A   Scattered Clouds
7:58 PM 77.0 °F - 71.1 °F 82% 29.81 in 10.0 mi South 5.8 mph - N/A   Overcast
8:58 PM 75.0 °F - 70.0 °F 84% 29.83 in 10.0 mi South 4.6 mph - N/A   Mostly Cloudy
9:58 PM 73.0 °F - 70.0 °F 90% 29.83 in 10.0 mi Calm Calm - N/A   Partly Cloudy
10:58 PM 72.0 °F - 70.0 °F 93% 29.83 in 10.0 mi SSE 3.5 mph - N/A   Clear
11:58 PM 72.0 °F - 70.0 °F 93% 29.83 in 10.0 mi South 4.6 mph - N/A   Mostly Cloudy